This demonstration page uses our WeatherBlox Daily Observations layout. Learn more.

Left ArrowRight Arrow

36.17497, -115.13722

Hourly Observations for November 7, 2020

Temp ( °F °C ) Dew Point ( °F °C ) Humidity (%) Winds ( mph kmh ) Pressure ( in mb ) Visibility ( mi km ) Precip ( " mm )
12:53 am 00:53 Clear 71 21.7 26 -3.3 19 19 S 18 30 29.40 996 10 16 0.00 0.00
1:53 am 01:53 Clear 68 20 28 -2.2 22 22 SSW 12 19 29.40 996 10 16 0.00 0.00
2:53 am 02:53 Clear 66 18.9 36 2.2 33 33 S 17 28 29.40 996 10 16 0.00 0.00
3:53 am 03:53 Clear 64 17.8 40 4.4 41 41 SSW 15 24 29.43 997 10 16 0.00 0.00
4:53 am 04:53 Partly Cloudy 59 15 35 1.7 41 41 SW 15 24 29.48 998 10 16 0.00 0.00
5:53 am 05:53 Clear 59 15 29 -1.7 32 32 SSW 12 19 29.50 999 10 16 0.00 0.00
6:53 am 06:53 Sunny 57 13.9 29 -1.7 34 34 SSW 14 22 29.53 1000 10 16 0.00 0.00
7:53 am 07:53 Sunny 56 13.3 29 -1.7 36 36 WSW 13 20 29.56 1001 10 16 0.00 0.00
8:53 am 08:53 Sunny 58 14.4 28 -2.2 32 32 SW 15 24 29.57 1001 10 16 0.00 0.00
9:53 am 09:53 Sunny 60 15.6 24 -4.4 25 25 WSW 21 33 29.57 1001 10 16 0.00 0.00
10:53 am 10:53 Sunny 61 16.1 20 -6.7 20 20 WSW 18 30 29.55 1001 10 16 0.00 0.00
11:53 am 11:53 Mostly Cloudy 62 16.7 22 -5.6 21 21 WSW 20 31 29.55 1001 10 16 0.00 0.00
12:53 pm 12:53 Cloudy with Light Rain 57 13.9 28 -2.2 33 33 WSW 26 43 29.56 1001 10 16 0.00 0.00
1:53 pm 13:53 Cloudy with Light Rain 49 9.4 37 2.8 64 64 WSW 18 30 29.60 1002 10 16 0.00 0.00
2:53 pm 14:53 Partly Cloudy 52 11.1 33 0.6 49 49 SW 9 15 29.55 1001 10 16 0.00 0.00
3:53 pm 15:53 Cloudy 50 10 32 0 50 50 SW 23 37 29.57 1001 10 16 0.00 0.00
4:53 pm 16:53 Cloudy 50 10 31 -0.6 48 48 S 12 19 29.56 1001 10 16 0.00 0.00
5:53 pm 17:53 Clear 51 10.6 29 -1.7 43 43 SSW 15 24 29.56 1001 10 16 0.00 0.00
6:53 pm 18:53 Clear 51 10.6 30 -1.1 44 44 SW 13 20 29.58 1002 10 16 0.00 0.00
7:53 pm 19:53 Clear 52 11.1 29 -1.7 41 41 WSW 10 17 29.60 1002 10 16 0.00 0.00
8:53 pm 20:53 Clear 51 10.6 29 -1.7 43 43 SSW 9 15 29.60 1002 10 16 0.00 0.00
9:53 pm 21:53 Clear 50 10 28 -2.2 43 43 SSW 12 19 29.62 1003 10 16 0.00 0.00
10:53 pm 22:53 Clear 49 9.4 28 -2.2 44 44 S 13 20 29.62 1003 10 16 0.00 0.00
11:53 pm 23:53 Clear 49 9.4 28 -2.2 44 44 SSW 14 22 29.63 1004 10 16 0.00 0.00

Powered by AerisWeather